User: anonymous   Login
Location: Sternwarte-Kirchheim
(50.8752°N, 11.0153°E)
Time: 14:22:17
(UTC+02:00)
Language:

ISS - Orbit

View from above orbital plane
View from above orbital plane
View from above satellite
View from above satellite

Ground track
Ground track

The orbit data is extracted from the following two-line orbital elements,

1 25544U 98067A   19294.93631066  .00016717  00000-0  10270-3 0  9040
2 25544  51.6406  92.7864 0006792 173.2904 186.8339 15.50202786 34911
Epoch (UTC): 21 October 2019 22:28:17
Eccentricity: 0.0006792
inclination: 51.6406°
perigee height: 411 km
apogee height: 421 km
right ascension of ascending node: 92.7864°
argument of perigee: 173.2904°
revolutions per day: 15.50202786
mean anomaly at epoch: 186.8339°
orbit number at epoch: 3491

The dashed part of the orbit path shows where the satellite is in the earth's shadow,  

DLR